Home   Weather   Barcelona   Past weeks
Flag for Spain

Past Weather in Barcelona, Barcelona, Spain — Yesterday and Last 2 Weeks

Now
79 °F

Passing clouds.


Feels Like: 82 °F
Forecast: 83 / 69 °F
Wind: 6 mph from Southwest

Location: Barcelona Airport

Current Time: Jul 19, 2019 at 9:27:06 pm

Latest Report: Jul 19, 2019 at 9:00 pm


Visibility: N/A

Pressure: 29.98 "Hg

Humidity: 79%

Dew Point: 72 °F

Location of BarcelonaLocation

Past Weather in Barcelona — Graph

°F

Barcelona Temperature Yesterday

Maximum temperature yesterday: 84 °F (at 11:30 am)
Minimum temperature yesterday: 70 °F (at 12:00 am)
Average temperature yesterday: 76 °F

High & Low Weather Summary for the Past Weeks

 TemperatureHumidityPressure
High86 °F (Jul 5, 3:30 pm)100% (Jul 7, 12:00 am)30.04 "Hg (Jul 7, 12:00 am)
Low70 °F (Jul 10, 5:00 am)45% (Jul 10, 11:00 am)29.80 "Hg (Jul 9, 5:00 am)
Average78 °F72%29.93 "Hg
* Reported Jul 4 8:00 pm — Jul 19 8:00 pm, Barcelona. Weather by CustomWeather, © 2019

Note: Actual official high and low records may vary slightly from our data, if they occured in-between our weather recording intervals... More about our weather records

Advertising

Barcelona Weather History for the Previous 24 Hours

Scroll right to see more
 ConditionsComfort  
Time TempWeatherWind HumidityBarometerVisibility
8:00 pm
Fri, Jul 19
79 °FPassing clouds.8 mph74%29.98 "HgN/A
7:30 pm81 °FPassing clouds.7 mph74%29.98 "HgN/A
7:00 pm81 °FPassing clouds.8 mph74%29.98 "HgN/A
6:30 pm81 °FPassing clouds.8 mph74%29.98 "HgN/A
6:00 pm82 °FPassing clouds.9 mph66%29.98 "HgN/A
5:30 pm82 °FPassing clouds.10 mph66%29.98 "HgN/A
5:00 pm82 °FPassing clouds.10 mph70%30.01 "HgN/A
4:30 pm82 °FPassing clouds.10 mph70%30.01 "HgN/A
4:00 pm81 °FPassing clouds.10 mph74%30.01 "HgN/A
3:30 pm82 °FPassing clouds.9 mph66%30.01 "HgN/A
3:00 pm82 °FPassing clouds.9 mph66%30.04 "HgN/A
2:30 pm81 °FPassing clouds.10 mph70%30.04 "HgN/A
2:00 pm82 °FPassing clouds.9 mph66%30.04 "HgN/A
1:30 pm82 °FPassing clouds.9 mph66%30.04 "HgN/A
1:00 pm81 °FPassing clouds.9 mph74%30.04 "HgN/A
12:30 pm81 °FPassing clouds.8 mph74%30.04 "HgN/A
12:00 pm81 °FPassing clouds.8 mph74%30.04 "HgN/A
11:30 am81 °FPassing clouds.7 mph74%30.04 "HgN/A
11:00 am81 °FPassing clouds.8 mph70%30.04 "HgN/A
10:30 am81 °FPassing clouds.6 mph70%30.04 "HgN/A
10:00 am79 °FPassing clouds.6 mph74%30.04 "HgN/A
9:30 am79 °FPassing clouds.3 mph74%30.04 "HgN/A
9:00 am77 °FPassing clouds.2 mph74%30.04 "HgN/A
8:30 am75 °FPassing clouds.5 mph74%30.01 "HgN/A
8:00 am73 °FPassing clouds.7 mph78%30.01 "HgN/A
7:30 am72 °FPassing clouds.5 mph83%30.01 "HgN/A
7:00 am72 °FPassing clouds.5 mph83%30.01 "HgN/A
6:30 am72 °FPassing clouds.7 mph83%30.01 "HgN/A
6:00 am72 °FPassing clouds.6 mph83%30.01 "HgN/A
5:30 am73 °FPassing clouds.5 mph83%30.01 "HgN/A
5:00 am73 °FPassing clouds.5 mph83%30.01 "HgN/A
4:30 am73 °FPassing clouds.7 mph83%30.01 "HgN/A
4:00 am73 °FPassing clouds.5 mph83%30.01 "HgN/A
3:30 am73 °FPassing clouds.5 mph83%30.01 "HgN/A
3:00 am75 °FPassing clouds.3 mph78%30.01 "HgN/A
2:30 am75 °FPassing clouds.1 mph78%30.01 "HgN/A
2:00 am75 °FPassing clouds.5 mph78%30.01 "HgN/A
1:30 am77 °FPassing clouds.3 mph79%30.01 "HgN/A
1:00 am77 °FPassing clouds.5 mph74%30.01 "HgN/A
12:30 am77 °FPassing clouds.1 mph79%30.01 "HgN/A
12:00 am79 °FPassing clouds.2 mph74%30.01 "HgN/A
11:30 pm
Thu, Jul 18
77 °FPassing clouds.No wind79%30.01 "HgN/A
11:00 pm79 °FPassing clouds.No wind74%30.01 "HgN/A
10:30 pm79 °FPassing clouds.2 mph74%29.98 "HgN/A
10:00 pm79 °FPassing clouds.3 mph74%29.98 "HgN/A
9:30 pm79 °FPassing clouds.5 mph70%29.98 "HgN/A
9:00 pm79 °FPassing clouds.7 mph74%29.98 "HgN/A
Weather by CustomWeather, © 2019

See weather overview